User: anonymous   Login
Location: Fort Hays State University
(38.8712°N, 99.3432°W)
Time: 09:06:47
(UTC-05:00)
Language:

ALOS - Orbit

View from above orbital plane
View from above orbital plane
View from above satellite
View from above satellite

Ground track
Ground track

The orbit data is extracted from the following two-line orbital elements,

1 28931U 06002A   17294.24111461  .00000267  00000-0  61467-4 0  9997
2 28931  97.8362 315.2415 0000715  48.8580 311.2685 14.62409531625887
Epoch (UTC): 21 October 2017 05:47:12
Eccentricity: 0.0000715
inclination: 97.8362°
perigee height: 685 km
apogee height: 686 km
right ascension of ascending node: 315.2415°
argument of perigee: 48.8580°
revolutions per day: 14.62409531
mean anomaly at epoch: 311.2685°
orbit number at epoch: 62588

The dashed part of the orbit path shows where the satellite is in the earth's shadow,  

DLR